Location: Cartignies
(50.0929°N, 3.8447°E)
Time: 14:39:28
(UTC+00:00)

CARTOSAT-1 - Pass Details

Date: 12 January 2026
Orbit: 594 x 598 km, 97.5° (Epoch: 16 February)

Event Time Altitude Azimuth Distance (km) Brightness Sun altitude
Rises 18:29:45 0° 168° (SSE) 2,832 6.9 -22.1°
Reaches altitude 10° 18:31:54 10° 169° (S) 1,935 6.1 -22.5°
Maximum altitude 18:36:07 80° 256° (WSW) 615 3.5 -23.2°
Drops below altitude 10° 18:40:22 10° 345° (NNW) 1,950 6.2 -23.8°
Sets 18:42:33 0° 346° (NNW) 2,857 7.1 -24.2°
